ONEWEB-0153 (48044 NORAD) Tracking and Keplerian Element Data

This shows tracking and keplerian element data for the satellite.

Feedback or suggestion? Click here.




ElementValue
Catalog48044
NameONEWEB-0153
Epoch Orbit205
Epoch Day173.91668981
Epoch Year2021
RAAN322.3438
Inclination87.7826
Eccentricity0.0010144
Argument of Perigee345.9526
Mean Anonmoly11.3457
Mean Motion13.74876167
Decay Rate1.5E-07
L11 48044U 21025C 21173.91668981 .00000015 00000-0 00000-0 0 9998
L22 48044 87.7826 322.3438 0010144 345.9526 11.3457 13.74876167 2057

Live tracking and technical data element details for ONEWEB-0153 (NORAD 48044). ONEWEB-0153 can be tracked NOW for your location showing map with azimuth and elevation plus other details from your city location.

Track the satellite on the map from your city or location and see movement details for azimuth, elevation, latitude, longitude, range, height, and movement on the map or in text.







IsCatalogInMostPopularTable: catalog: 48044, numindb: 38
Update: records affected: 1



GetName: 48044 ONEWEB-0153

Hit Count: updated at: Thu, 24 Jun 2021 03:07:16 GMT